Flag for USA

Past Weather in 38°50'27"N, 104°51'43"W, USA — Yesterday and Last 2 Weeks

Now
33 °F

Passing clouds.


Feels Like: 26 °F
Forecast: 63 / 31 °F
Wind: 8 mph from North

Location: City Of Colorado Springs Municipal Airport

Current Time: Apr 5, 2020 at 5:10:24 am

Latest Report: Apr 5, 2020 at 3:54 am


Visibility: 10 mi

Pressure: 29.80 "Hg

Humidity: 72%

Dew Point: 25 °F

Location of 38°50'27"N, 104°51'43"WLocation

Past Weather in 38°50'27"N, 104°51'43"W — Graph

°F

38°50'27"N, 104°51'43"W Temperature Yesterday

Maximum temperature yesterday: 57 °F (at 3:54 pm)
Minimum temperature yesterday: 21 °F (at 3:54 am)
Average temperature yesterday: 37 °F

High & Low Weather Summary for the Past Weeks

 TemperatureHumidityPressure
High68 °F (Mar 26, 1:54 pm)92% (Apr 2, 7:11 am)30.34 "Hg (Apr 2, 7:11 am)
Low20 °F (Mar 21, 3:54 am)8% (Mar 25, 2:54 pm)29.44 "Hg (Mar 26, 2:54 pm)
Average43 °F46%29.88 "Hg
* Reported Mar 21 3:54 am — Apr 5 3:54 am, 38°50'27"N, 104°51'43"W. Weather by CustomWeather, © 2020

Note: Actual official high and low records may vary slightly from our data, if they occured in-between our weather recording intervals... More about our weather records

38°50'27"N, 104°51'43"W Weather History for the Previous 24 Hours

Scroll right to see more
 ConditionsComfort  
Time TempWeatherWind HumidityBarometerVisibility
3:54 am
Sun, Apr 5
33 °FPassing clouds.8 mph72%29.80 "Hg10 mi
2:54 am31 °FPassing clouds.3 mph76%29.84 "Hg10 mi
1:54 am31 °FPassing clouds.9 mph76%29.88 "Hg10 mi
12:54 am33 °FPassing clouds.10 mph72%29.90 "Hg10 mi
11:54 pm
Sat, Apr 4
36 °FClear.6 mph62%29.93 "Hg10 mi
10:54 pm40 °FPassing clouds.7 mph58%29.93 "Hg10 mi
9:54 pm44 °FPassing clouds.9 mph49%29.93 "Hg10 mi
8:54 pm47 °FPassing clouds.10 mph41%29.91 "Hg10 mi
7:54 pm48 °FPassing clouds.12 mph37%29.90 "Hg10 mi
6:54 pm52 °FPartly sunny.12 mph34%29.89 "Hg10 mi
5:54 pm54 °FScattered clouds.17 mph30%29.86 "Hg10 mi
4:54 pm56 °FScattered clouds.20 mph29%29.84 "Hg10 mi
3:54 pm57 °FScattered clouds.21 mph27%29.85 "Hg10 mi
2:54 pm55 °FScattered clouds.16 mph29%29.87 "Hg10 mi
1:54 pm49 °FBroken clouds.9 mph36%29.93 "Hg10 mi
11:54 am40 °FScattered clouds.6 mph45%30.01 "Hg10 mi
10:54 am35 °FPassing clouds.3 mph48%30.05 "Hg10 mi
9:54 am32 °FPassing clouds.No wind50%30.07 "Hg10 mi
8:54 am28 °FPassing clouds.No wind56%30.09 "Hg10 mi
7:54 am25 °FPassing clouds.3 mph58%30.11 "Hg10 mi
6:54 am22 °FPassing clouds.3 mph62%30.10 "Hg10 mi
5:54 am21 °FPartly cloudy.7 mph65%30.11 "Hg10 mi
Weather by CustomWeather, © 2020

See weather overview

Advertising